User: anonymous   Login
Location: Pine Mountain Observatory
(43.7910°N, 120.9377°W)
Time: 23:55:58
(UTC-08:00)
Language:

Meteor 2-19 Rocket - Orbit

View from above orbital plane
View from above orbital plane
View from above satellite
View from above satellite

Ground track
Ground track

The orbit data is extracted from the following two-line orbital elements,

1 20671U 90057B   14328.19791527  .00000024  00000-0  79933-5 0  1451
2 20671 082.5485 036.1056 0016292 069.3766 349.0922 13.84580895233545
Epoch (UTC): 24 November 2014 04:44:59
Eccentricity: 0.0016292
inclination: 82.5485°
perigee height: 936 km
apogee height: 959 km
right ascension of ascending node: 36.1056°
argument of perigee: 69.3766°
revolutions per day: 13.84580895
mean anomaly at epoch: 349.0922°
orbit number at epoch: 23354

The dashed part of the orbit path shows where the satellite is in the earth's shadow,  

DLR